Dewpoint
-5 -4 -4 -1 1 2 1 4 7 10 9 7 7 6 3 3 2 0 -1 -1 -3 -4 -5 -7 -9 -11 -12 -11 -12 -11 -12 -10 -9 -10 -3 -0 -0 -2 3 4 3 4 2
-4 -4 -4 -4 -4 -7 -7 -4 4 9 5 4 5 6 4 3 3 1 -0 -1 -2 -3 -4 -6 -8 -10 -11 -11 -11 -11 -9 -8 -8 -7 0 0 0 2 3 3 4 4 3
-4 -4 -4 -4 -4 -6 -7 -7 -1 5 4 4 6 7 5 3 2 0 -0 -1 -2 -2 -3 -4 -6 -8 -10 -10 -11 -11 -10 -8 0 -6 -4 1 1 3 4 2 0 -0 2
-3 -3 -3 -3 -3 -4 -6 -6 -4 2 2 4 6 6 4 3 2 1 1 0 -1 -1 -2 -2 -3 -5 -6 -7 -8 -9 -9 -9 -8 -0 -4 -5 1 2 0 4 3 2 1
-4 -3 -3 -2 -2 -1 -4 -6 -5 -0 1 2 4 7 6 5 5 3 1 1 0 -0 -0 -0 -1 -2 -2 -3 -4 -6 -7 -8 -7 -4 -0 2 2 2 3 2 3 3 2
-4 -5 -3 -3 -2 0 -1 -4 -5 -3 -1 -0 3 7 7 5 4 3 2 1 1 1 1 1 -1 -3 -4 -3 -3 -3 -4 -6 -6 -6 -4 -1 2 2 2 3 2 2 3
-4 -3 -2 -2 -1 1 -1 -4 -3 1 1 1 3 7 8 6 5 3 3 2 2 2 2 -0 -2 -3 -3 -2 -1 -1 -1 -3 -4 -4 -3 1 1 2 2 2 2 2 3
-3 -3 -3 -2 -1 -1 -5 -5 -6 -4 -1 0 1 6 8 7 5 4 3 2 2 2 0 -2 -3 -3 -3 -1 -0 1 1 -0 -2 -3 -4 -3 -1 1 0 1 2 2 1
-2 -2 -6 -4 -2 -1 -4 -5 -6 -6 -5 -4 -0 4 7 7 6 4 3 3 3 2 -1 -3 -4 -3 -2 0 1 2 2 1 -0 -1 -3 -3 -1 1 -1 -2 -1 0 1
2 1 -0 -2 -6 -6 -6 -6 -6 -6 -5 -4 -4 2 6 7 6 5 4 3 2 0 -2 -3 -3 -2 -1 1 2 2 2 2 1 -1 -2 -2 -1 -0 -1 -1 -2 -2 -1
2 2 2 1 0 -2 -6 -7 -7 -7 -7 -6 -6 -4 4 6 6 5 4 3 2 -0 -2 -3 -3 -1 1 2 2 2 2 2 1 0 -1 -2 1 2 2 -0 -1 -2 -2
-1 -1 -0 1 1 1 1 1 -3 -6 -5 -5 -5 -5 1 6 6 5 4 3 2 -1 -2 -3 -2 0 1 0 1 2 2 1 1 1 -0 -1 -0 1 1 1 -0 -1 -1
-2 -2 -2 -2 -2 -0 -0 -0 1 1 -2 -2 -1 -1 1 5 5 4 4 3 1 -2 -1 -1 -0 0 -0 1 1 1 1 1 0 -0 0 1 1 0 1 0 0 -0 0
-3 -3 -3 -3 -3 -4 -3 -1 -4 0 0 -1 -1 2 4 5 5 4 4 2 -1 0 -0 -0 0 -1 1 1 2 0 -0 -1 -1 -1 -0 -0 0 0 0 -0 -1 0 0
-4 -3 -3 -3 -4 -6 -6 -3 -2 -3 0 1 2 4 4 4 4 4 3 0 -0 1 1 1 -0 1 1 0 -0 -1 -1 -1 -1 -1 -1 -1 -0 -1 -0 -0 -0 -0 -0
-5 -4 -3 -2 -4 -5 -5 -6 -4 -0 -0 2 3 4 4 4 3 2 1 1 2 2 1 0 1 1 1 -1 -1 -1 -1 -1 -1 -2 -2 -1 -1 -1 -1 -1 -1 -1 -1
-5 -4 -3 -3 -3 -4 -4 -3 -6 -3 1 1 2 2 1 1 1 1 1 2 1 1 1 2 1 2 0 -1 -1 -1 -2 -1 -2 -2 -2 -2 -2 -2 -1 -1 -1 -1 -1
-5 -4 -3 -4 -7 -7 -4 -3 -3 -4 -1 1 1 1 1 1 2 3 2 2 1 2 1 -0 1 2 0 -1 -1 -1 -2 -2 -2 -2 -2 -2 -2 -2 -2 -2 -1 -2 -1
-4 -3 -3 -5 -7 -9 -7 -4 -2 -1 1 -0 1 2 2 2 2 1 1 1 1 0 0 1 2 1 0 0 0 -1 -2 -2 -2 -2 -3 -3 -3 -2 -2 -2 -2 -2 -2
-4 -4 -5 -5 -5 -5 -6 -5 -2 -1 2 2 2 2 3 3 1 1 2 1 1 2 1 1 1 1 1 0 -1 -2 -2 -2 -2 -2 -3 -3 -3 -2 -2 -3 -2 -2 -2
-6 -6 -5 -4 -4 -5 -4 -3 -1 -0 0 2 2 2 1 1 2 2 1 1 1 1 1 0 0 -0 -0 -1 -1 -2 -2 -2 -3 -2 -3 -3 -3 -3 -3 -3 -3 -3 -3
-7 -7 -7 -6 -6 -5 -4 -3 -4 -1 -1 0 1 2 1 1 1 1 1 1 1 1 1 -0 -0 -1 -1 -1 -1 -2 -3 -3 -3 -3 -4 -5 -3 -3 -3 -3 -3 -3 -4
-8 -8 -8 -8 -9 -7 -5 -3 -6 -5 -2 -1 -1 0 1 1 -0 1 1 1 1 0 -1 -1 -1 -1 -2 -1 -2 -2 -3 -3 -3 -4 -5 -4 -3 -3 -3 -3 -3 -5 -9
-9 -9 -8 -8 -9 -9 -8 -6 -5 -4 -3 -2 -2 -1 -1 0 1 1 0 0 -0 -0 -1 -2 -2 -2 -2 -2 -2 -3 -3 -3 -4 -4 -4 -3 -3 -3 -3 -4 -4 -5 -8
-8 -7 -7 -8 -8 -9 -9 -9 -8 -4 -3 -3 -3 -2 -1 -1 -1 -0 -0 -1 -1 -1 -1 -3 -3 -2 -3 -3 -2 -3 -3 -4 -4 -4 -4 -4 -3 -4 -4 -4 -5 -6 -8
-8 -7 -7 -8 -9 -8 -8 -9 -7 -4 -3 -3 -3 -2 -2 -2 -2 -2 -2 -2 -2 -2 -3 -2 -2 -3 -3 -3 -3 -3 -3 -4 -4 -4 -4 -4 -4 -4 -4 -5 -5 -5 -6
Wind_Speed
22 23 26 28 27 25 24 24 24 22 24 25 23 20 19 20 19 18 16 14 12 10 9 8 8 8 8 8 8 9 9 9 10 11 10 12 13 13 11 12 10 10 11
20 23 26 27 30 30 30 29 28 27 29 28 25 22 19 20 20 19 17 16 13 11 10 9 8 8 7 8 9 9 8 9 11 7 8 6 7 13 11 9 8 9 12
14 16 25 28 29 32 31 30 28 29 28 28 26 25 20 21 21 22 20 18 15 13 12 10 9 8 8 9 10 11 11 10 10 10 7 4 5 6 10 12 12 13 12
12 15 17 22 28 30 29 27 26 28 28 28 30 28 24 22 21 21 20 19 18 16 14 11 9 9 9 10 12 13 13 14 12 12 12 13 13 5 7 9 12 11 11
6 6 11 14 20 23 28 26 25 27 28 30 30 27 24 20 16 19 19 21 20 17 14 12 11 10 10 12 13 14 15 15 14 13 11 14 12 13 14 15 9 12 12
9 5 4 8 12 18 23 24 23 26 28 30 30 30 28 24 23 21 21 22 20 18 16 13 11 10 12 14 15 15 16 16 16 15 15 14 11 8 11 14 15 13 9
10 8 6 2 7 14 18 19 20 22 25 27 29 30 30 28 25 23 23 22 21 19 15 13 11 12 14 16 17 16 16 16 17 16 15 13 15 15 15 14 14 11 10
16 13 8 2 4 10 14 16 18 20 22 24 27 29 31 29 28 25 24 23 22 19 16 13 13 14 16 17 17 17 17 17 17 16 16 16 15 15 16 15 12 12 11
23 22 19 9 4 7 11 15 17 19 21 23 26 29 32 32 31 27 25 23 22 20 16 15 14 16 17 17 17 17 17 17 16 16 15 15 14 16 15 16 15 14 11
21 22 24 25 16 8 12 15 17 20 21 24 26 29 31 33 32 28 27 25 22 19 17 15 15 17 17 16 17 17 17 17 16 16 15 14 14 14 14 13 13 14 15
20 20 20 21 20 19 16 17 20 22 25 27 27 28 31 33 32 30 27 24 22 20 17 15 15 16 15 16 17 18 17 17 14 15 15 14 12 12 11 13 11 10 11
19 19 22 19 18 17 18 19 22 26 27 27 27 29 31 34 32 28 25 24 22 19 16 13 13 15 15 17 17 16 16 16 16 15 15 15 13 14 13 14 14 14 15
20 20 19 19 18 18 18 17 21 24 26 26 25 27 30 32 31 28 27 26 22 18 11 10 13 13 21 19 17 18 18 17 17 15 13 12 14 16 19 20 24 25 26
22 22 22 22 23 25 25 27 23 21 24 25 25 26 27 29 28 27 27 25 20 14 12 9 13 17 21 19 18 17 17 17 17 16 16 17 18 20 21 23 23 20 20
27 28 29 30 31 31 31 28 27 21 21 23 23 24 24 25 26 25 25 22 21 19 14 12 14 21 19 18 18 17 17 18 18 18 21 20 19 21 22 22 21 18 18
21 23 25 26 31 32 31 30 26 23 18 19 21 21 20 22 23 24 25 23 21 19 20 16 18 22 22 18 15 16 19 20 19 15 16 17 18 16 14 14 14 20 19
20 22 23 25 28 33 35 32 26 22 21 20 22 22 23 25 27 28 28 24 19 16 13 17 23 26 22 18 14 16 16 16 16 15 15 17 17 15 17 16 15 16 17
21 23 24 30 33 35 35 35 32 23 26 22 22 21 21 24 26 22 15 13 13 13 16 22 27 24 20 18 14 13 13 12 13 13 14 13 11 12 13 13 15 16 16
19 20 24 30 32 32 34 35 35 29 24 31 30 28 26 26 19 16 13 13 18 20 25 25 21 21 20 15 13 13 11 12 10 12 10 9 10 12 12 14 13 11 11
20 22 26 28 29 30 30 32 32 31 25 26 28 31 30 28 23 19 21 21 25 24 23 21 20 18 17 16 13 12 11 10 11 11 9 8 7 9 9 8 8 8 8
23 24 24 22 23 28 28 29 28 28 26 21 18 19 18 20 20 21 21 24 23 23 20 18 17 17 17 17 14 10 13 12 12 10 9 8 8 8 8 8 9 7 9
23 22 24 25 27 25 25 27 30 28 30 29 24 25 23 22 22 21 24 23 21 20 19 18 18 15 15 15 12 11 12 13 10 8 10 10 9 10 9 10 10 9 10
20 21 23 28 31 28 24 28 33 30 32 31 35 28 27 25 24 24 23 23 22 20 18 16 15 16 13 12 11 11 13 10 10 10 10 7 7 12 11 11 12 13 12
22 22 24 26 31 31 30 28 31 31 27 29 32 21 18 24 24 23 24 24 23 22 19 17 16 13 13 11 14 12 13 11 10 9 8 7 8 14 13 13 13 16 14
21 22 24 26 29 31 31 31 33 28 27 28 28 23 19 20 21 22 21 20 19 19 19 17 14 13 12 12 12 13 16 10 8 8 8 7 10 18 16 15 15 18 18
22 23 24 27 31 31 33 32 30 27 25 27 26 22 19 19 22 20 19 18 15 14 12 12 13 11 11 11 12 13 13 10 8 8 8 10 16 17 17 14 13 15 18
Wind_Direction
238 228 223 218 217 214 210 209 207 208 213 217 221 227 230 229 230 231 234 235 238 244 253 266 273 272 272 272 278 283 290 296 296 300 314 304 292 281 276 276 281 285 289
240 230 223 217 222 223 222 216 210 209 217 222 225 226 229 231 230 232 233 233 237 242 250 257 260 265 273 280 288 294 292 295 293 285 289 311 278 285 284 264 264 264 274
255 239 226 219 220 225 223 222 217 217 218 220 220 221 219 225 226 231 231 231 233 235 239 245 254 268 277 284 290 291 289 281 281 288 257 298 265 295 261 291 283 283 280
271 245 229 226 222 226 226 224 221 221 221 218 223 227 232 232 235 235 234 234 234 236 239 245 252 260 270 279 287 288 285 284 279 277 283 253 255 287 294 281 304 299 287
337 247 233 227 224 220 223 222 220 219 221 221 226 227 227 230 231 226 230 232 232 235 239 246 253 263 277 284 283 283 280 277 273 262 256 278 270 263 262 284 273 297 302
11 358 267 243 216 215 222 220 220 220 222 224 224 224 225 224 228 230 232 233 234 235 238 242 251 268 281 284 283 281 280 278 275 272 264 256 248 265 266 265 273 277 274
19 9 356 312 202 214 220 220 221 223 224 229 228 226 226 228 233 232 232 233 235 235 240 246 258 272 281 284 283 283 282 278 273 270 267 263 259 248 246 251 259 269 258
22 18 9 343 214 234 230 233 236 236 237 236 236 232 231 229 233 233 235 234 234 235 237 246 261 276 282 283 281 282 280 277 275 272 268 265 261 259 255 248 253 255 250
29 25 25 7 290 257 249 249 253 251 246 245 240 235 233 231 233 234 238 236 234 235 239 247 264 278 281 281 279 278 277 275 272 270 267 263 262 261 260 260 254 238 251
19 18 19 18 6 300 277 272 269 266 261 254 249 244 239 235 235 236 237 235 234 235 240 253 270 279 281 278 275 275 273 268 270 270 267 266 263 262 262 260 258 253 238
7 5 5 360 355 351 326 295 280 273 268 263 257 248 240 236 233 232 233 234 231 234 242 255 269 277 277 276 274 269 265 267 266 266 269 262 251 252 252 251 245 253 255
3 1 0 353 349 340 322 309 296 279 269 261 256 249 239 235 231 232 234 232 232 236 248 262 274 275 281 280 272 267 265 271 274 269 262 261 246 253 249 254 258 261 261
4 3 0 357 352 345 330 309 297 291 280 267 259 250 239 235 231 228 229 228 226 233 238 261 273 285 282 273 258 254 257 263 269 266 259 248 251 254 259 262 270 275 271
2 358 355 351 350 348 340 336 320 290 281 269 261 253 244 238 235 229 225 222 216 223 232 253 270 275 261 263 253 254 261 269 269 264 264 266 261 262 264 270 275 275 258
356 353 348 343 341 340 343 333 328 307 291 274 262 253 245 237 231 227 220 212 217 229 246 248 259 255 254 251 252 260 269 274 270 272 274 273 266 268 261 270 263 268 243
344 340 337 337 338 337 332 333 325 320 294 276 264 255 249 242 234 224 217 225 233 240 258 253 243 251 245 245 253 278 278 273 273 275 280 270 276 271 264 240 267 249 254
336 333 330 328 328 329 335 326 318 304 298 274 259 247 240 236 228 222 226 231 228 221 226 233 244 236 233 237 249 271 277 266 270 275 269 269 272 267 265 274 251 248 248
330 326 326 328 332 330 329 329 321 303 276 269 251 240 244 239 227 225 228 238 229 234 231 240 237 232 233 236 255 279 278 275 270 270 269 270 273 269 269 259 253 251 251
319 316 318 323 325 329 326 324 324 313 293 263 257 257 259 256 234 251 244 232 241 239 241 238 230 233 236 243 267 276 272 274 266 280 285 281 257 252 252 253 258 245 232
316 315 317 321 323 324 325 319 321 317 304 288 263 259 260 245 241 248 245 244 240 235 235 233 233 234 236 248 259 264 252 266 272 285 284 279 256 246 248 235 229 215 208
314 316 315 314 316 321 324 317 315 314 305 287 268 245 240 235 241 239 235 234 232 231 229 231 234 240 241 243 258 267 250 261 276 272 277 270 248 232 235 219 209 213 198
316 317 315 313 316 320 319 315 314 310 304 295 272 240 233 238 231 226 230 230 227 226 224 227 238 234 244 234 250 235 250 255 258 258 266 272 241 212 223 210 208 198 167
311 314 313 313 314 315 314 311 314 309 297 302 294 264 236 229 226 225 227 226 224 221 227 226 231 228 223 232 230 227 245 256 250 259 275 249 218 206 214 204 203 166 163
318 320 319 315 314 316 312 304 308 311 303 299 294 252 233 225 219 216 221 220 223 217 229 226 226 226 228 229 226 216 236 248 257 257 258 237 210 209 205 193 187 164 171
319 319 316 312 310 314 311 309 310 308 303 298 281 245 243 234 222 210 209 211 212 212 220 233 228 221 235 229 215 235 223 249 253 243 242 229 215 196 192 187 184 177 181
318 318 316 314 317 316 314 314 313 307 303 291 268 242 221 205 211 206 200 207 216 215 208 209 211 219 225 229 225 215 225 233 233 219 210 197 195 191 188 186 191 191 186
Height
1489 1491 1493 1495 1498 1501 1504 1507 1510 1512 1514 1516 1519 1522 1524 1525 1527 1528 1529 1531 1532 1532 1533 1534 1534 1534 1533 1533 1533 1532 1532 1532 1531 1531 1530 1529 1529 1528 1528 1528 1527 1527 1525
1482 1485 1487 1490 1490 1493 1496 1499 1502 1505 1507 1510 1514 1517 1519 1521 1523 1525 1527 1528 1529 1530 1531 1531 1531 1531 1531 1531 1531 1530 1530 1530 1529 1530 1529 1528 1528 1526 1525 1525 1525 1524 1523
1480 1481 1482 1484 1486 1487 1490 1494 1499 1502 1504 1507 1511 1513 1516 1517 1519 1521 1523 1524 1526 1526 1527 1527 1528 1528 1529 1529 1528 1527 1527 1527 1528 1527 1529 1529 1527 1525 1523 1523 1522 1522 1521
1476 1477 1479 1479 1481 1484 1488 1493 1497 1499 1502 1505 1507 1510 1512 1514 1516 1518 1521 1523 1524 1525 1525 1525 1526 1525 1525 1525 1525 1525 1525 1525 1525 1525 1525 1525 1526 1526 1524 1521 1519 1520 1519
1473 1475 1476 1478 1480 1482 1484 1488 1491 1495 1497 1500 1503 1507 1511 1513 1515 1516 1517 1518 1519 1521 1522 1523 1523 1523 1523 1523 1522 1521 1521 1521 1521 1521 1522 1522 1521 1522 1522 1521 1519 1517 1516
1475 1474 1475 1476 1478 1481 1483 1486 1488 1490 1492 1494 1497 1501 1504 1507 1509 1511 1513 1514 1516 1517 1518 1518 1518 1520 1520 1520 1519 1519 1519 1518 1518 1519 1519 1519 1520 1520 1519 1518 1517 1516 1514
1476 1475 1475 1476 1478 1480 1482 1485 1487 1489 1491 1492 1495 1497 1500 1502 1503 1505 1507 1509 1511 1513 1514 1515 1516 1517 1516 1516 1516 1515 1514 1514 1514 1514 1514 1515 1514 1514 1514 1515 1514 1513 1512
1477 1476 1476 1476 1477 1479 1481 1484 1486 1488 1489 1491 1493 1495 1498 1498 1499 1501 1503 1503 1506 1508 1508 1511 1512 1512 1512 1511 1511 1511 1511 1510 1510 1510 1511 1511 1511 1510 1510 1510 1511 1511 1510
1481 1480 1478 1478 1479 1480 1480 1482 1484 1486 1486 1486 1487 1488 1491 1493 1494 1496 1498 1500 1501 1503 1505 1505 1506 1507 1507 1507 1507 1507 1507 1506 1506 1506 1505 1505 1506 1507 1506 1506 1507 1507 1507
1484 1482 1481 1480 1480 1481 1481 1481 1482 1483 1485 1484 1484 1485 1486 1487 1489 1492 1493 1495 1497 1499 1501 1501 1502 1503 1503 1502 1502 1503 1504 1503 1502 1503 1502 1501 1502 1501 1503 1503 1503 1503 1504
1487 1486 1484 1481 1482 1482 1481 1480 1479 1478 1479 1480 1478 1479 1480 1481 1483 1485 1487 1490 1492 1493 1495 1496 1497 1498 1498 1498 1498 1499 1499 1499 1498 1498 1497 1497 1497 1499 1499 1499 1500 1500 1502
1487 1485 1482 1482 1482 1480 1479 1477 1476 1474 1473 1472 1472 1471 1473 1474 1475 1480 1483 1484 1487 1489 1491 1492 1492 1493 1494 1496 1495 1496 1496 1495 1494 1493 1493 1492 1493 1494 1495 1496 1496 1497 1498
1486 1485 1484 1482 1479 1477 1476 1473 1472 1470 1469 1468 1467 1465 1466 1468 1470 1471 1476 1478 1479 1483 1484 1485 1487 1487 1490 1492 1491 1491 1492 1492 1490 1488 1488 1489 1489 1489 1489 1492 1492 1492 1493
1488 1487 1485 1482 1478 1475 1471 1467 1466 1465 1464 1463 1461 1462 1464 1466 1468 1467 1469 1472 1472 1476 1478 1479 1482 1482 1484 1486 1486 1487 1487 1487 1485 1484 1483 1483 1483 1484 1484 1484 1486 1486 1486
1485 1483 1481 1477 1474 1471 1468 1466 1464 1462 1460 1459 1458 1459 1461 1462 1463 1463 1465 1465 1465 1469 1470 1473 1474 1478 1479 1481 1482 1482 1481 1480 1480 1480 1480 1478 1477 1479 1478 1479 1479 1481 1482
1492 1490 1487 1483 1477 1472 1469 1465 1462 1458 1457 1456 1456 1458 1459 1460 1460 1459 1462 1462 1461 1462 1463 1466 1469 1473 1474 1476 1477 1477 1477 1477 1474 1473 1474 1474 1472 1472 1473 1474 1475 1477 1478
1495 1491 1488 1483 1478 1473 1469 1464 1459 1457 1455 1454 1454 1453 1452 1454 1455 1456 1456 1456 1457 1455 1457 1462 1465 1465 1467 1469 1471 1470 1470 1470 1470 1469 1470 1471 1469 1469 1469 1471 1471 1473 1474
1491 1488 1484 1479 1475 1471 1466 1461 1457 1453 1452 1451 1450 1450 1450 1450 1450 1451 1451 1451 1451 1453 1453 1456 1458 1462 1464 1464 1466 1466 1465 1465 1465 1465 1466 1465 1465 1465 1465 1467 1468 1469 1470
1488 1485 1481 1477 1472 1468 1463 1457 1453 1448 1446 1445 1446 1445 1444 1446 1446 1447 1447 1448 1450 1450 1451 1454 1455 1457 1461 1461 1462 1463 1463 1462 1462 1463 1462 1461 1462 1463 1464 1465 1466 1466 1467
1485 1481 1477 1473 1469 1465 1460 1455 1450 1445 1443 1441 1438 1438 1437 1438 1440 1442 1442 1444 1445 1448 1450 1450 1452 1455 1456 1457 1458 1459 1459 1460 1461 1460 1460 1459 1460 1460 1461 1463 1465 1466 1467
1480 1477 1473 1469 1465 1460 1456 1451 1447 1443 1439 1435 1433 1432 1430 1432 1434 1436 1439 1441 1443 1444 1446 1446 1449 1451 1452 1453 1454 1455 1457 1457 1457 1457 1458 1458 1458 1459 1460 1463 1464 1466 1466
1476 1473 1468 1464 1459 1456 1452 1447 1442 1439 1434 1431 1428 1427 1426 1427 1428 1432 1434 1436 1438 1440 1442 1444 1446 1446 1448 1449 1452 1452 1453 1454 1454 1455 1456 1456 1458 1458 1460 1462 1463 1465 1466
1472 1468 1463 1457 1453 1451 1448 1441 1436 1433 1430 1425 1421 1419 1418 1420 1423 1426 1429 1432 1433 1435 1437 1439 1442 1443 1444 1445 1448 1449 1451 1451 1452 1453 1453 1454 1456 1457 1460 1461 1463 1464 1468
1465 1461 1458 1453 1447 1444 1441 1438 1432 1427 1422 1419 1417 1415 1411 1414 1417 1420 1424 1425 1427 1429 1432 1435 1438 1439 1440 1442 1445 1446 1448 1449 1450 1450 1451 1454 1455 1456 1459 1460 1462 1465 1468
1461 1458 1455 1450 1444 1439 1434 1430 1426 1422 1417 1413 1412 1411 1410 1411 1413 1416 1418 1421 1423 1425 1429 1431 1434 1435 1437 1440 1442 1445 1445 1448 1448 1450 1451 1452 1454 1456 1458 1460 1462 1464 1468
1458 1454 1450 1445 1438 1433 1427 1422 1419 1415 1411 1407 1407 1407 1406 1407 1412 1413 1415 1418 1421 1423 1424 1428 1430 1432 1435 1437 1438 1442 1443 1446 1447 1449 1451 1452 1454 1456 1458 1460 1462 1464 1467